This demonstration page uses our WeatherBlox Daily Observations layout. Learn more.

38.88101, -77.10428

Hourly Observations for January 29, 2020

Temp ( °F °C ) Dew Point ( °F °C ) Humidity (%) Winds ( mph kmh ) Pressure ( in mb ) Visibility ( mi km ) Precip ( " mm )
12:52 am 00:52 Cloudy 42 5.6 30 -1.1 62 62 W 10 17 30.04 1017 10 16.0934 0 0
1:52 am 01:52 Cloudy 41 5 29 -1.7 62 62 NW 8 13 30.04 1017 10 16.0934 0 0
2:52 am 02:52 Cloudy 41 5 28 -2.2 60 60 WNW 12 19 30.04 1017 10 16.0934 0 0
3:52 am 03:52 Cloudy 41 5 27 -2.8 57 57 WNW 10 17 30.06 1018 10 16.0934 0 0
4:52 am 04:52 Cloudy 41 5 26 -3.3 55 55 WNW 8 13 30.07 1018 10 16.0934 0 0
5:52 am 05:52 Cloudy 40 4.4 26 -3.3 58 58 WNW 10 17 30.09 1019 10 16.0934 0 0
6:52 am 06:52 Cloudy 40 4.4 26 -3.3 58 58 NW 10 17 30.1 1019 10 16.0934 0 0
7:52 am 07:52 Cloudy 40 4.4 26 -3.3 58 58 NW 10 17 30.13 1020 10 16.0934 0 0
8:52 am 08:52 Cloudy 40 4.4 26 -3.3 58 58 NNW 13 20 30.14 1021 10 16.0934 0 0
9:52 am 09:52 Cloudy 41 5 24 -4.4 51 51 NW 17 28 30.15 1021 10 16.0934 0 0
10:52 am 10:52 Mostly Cloudy 42 5.6 25 -3.9 51 51 NW 13 20 30.15 1021 10 16.0934 0 0
11:52 am 11:52 Mostly Cloudy 42 5.6 24 -4.4 49 49 NNW 13 20 30.14 1021 10 16.0934 0 0
12:52 pm 12:52 Mostly Cloudy 43 6.1 24 -4.4 47 47 NNW 10 17 30.12 1020 10 16.0934 0 0
1:52 pm 13:52 Mostly Sunny 45 7.2 25 -3.9 46 46 N 12 19 30.1 1019 10 16.0934 0 0
2:52 pm 14:52 Mostly Sunny 47 8.3 25 -3.9 42 42 N 13 20 30.09 1019 10 16.0934 0 0
3:52 pm 15:52 Mostly Sunny 46 7.8 24 -4.4 42 42 N 12 19 30.09 1019 10 16.0934 0 0
4:52 pm 16:52 Mostly Sunny 44 6.7 23 -5 43 43 N 7 11 30.11 1020 10 16.0934 0 0
5:52 pm 17:52 Mostly Clear 41 5 23 -5 49 49 NNW 7 11 30.14 1021 10 16.0934 0 0
6:52 pm 18:52 Partly Cloudy 41 5 23 -5 49 49 NNW 10 17 30.15 1021 10 16.0934 0 0
7:52 pm 19:52 Partly Cloudy 39 3.9 23 -5 53 53 NNE 8 13 30.16 1021 10 16.0934 0 0
8:52 pm 20:52 Partly Cloudy 39 3.9 22 -5.6 50 50 N 7 11 30.16 1021 10 16.0934 0 0
9:52 pm 21:52 Partly Cloudy 36 2.2 22 -5.6 57 57 N 7 11 30.18 1022 10 16.0934 0 0
10:52 pm 22:52 Partly Cloudy 37 2.8 22 -5.6 54 54 Calm 30.2 1023 10 16.0934 0 0
11:52 pm 23:52 Partly Cloudy 33 0.6 22 -5.6 64 64 N 7 11 30.19 1022 10 16.0934 0 0

Powered by AerisWeather